Home   Weather   Tucson   Past weeks
Flag for USA

Past Weather in Tucson, Arizona, USA — Yesterday and Last 2 Weeks

Now
87 °F

Passing clouds.


Feels Like: 86 °F
Forecast: 102 / 81 °F
Wind: 3 mph from South

Location: Davis-Monthan Air Force Base

Current Time: Jul 19, 2019 at 1:20:08 am

Latest Report: Jul 18, 2019 at 11:58 pm


Visibility: 10 mi

Pressure: 29.79 "Hg (27.35 "Hg at 758m altitude)

Humidity: 37%

Dew Point: 58 °F

Location of TucsonLocation

Past Weather in Tucson — Graph

°F

Tucson Temperature Yesterday

Maximum temperature yesterday: 100 °F (at 2:25 pm)
Minimum temperature yesterday: 79 °F (at 3:56 am)
Average temperature yesterday: 90 °F

High & Low Weather Summary for the Past Weeks

 TemperatureHumidityPressure
High107 °F (Jul 16, 2:58 pm)65% (Jul 14, 5:58 am)30.07 "Hg (Jul 14, 5:58 am)
Low68 °F (Jul 8, 5:58 am)6% (Jul 8, 9:58 am)29.67 "Hg (Jul 12, 4:58 pm)
Average89 °F28%29.83 "Hg
* Reported Jul 3 11:58 pm — Jul 18 11:58 pm, Tucson. Weather by CustomWeather, © 2019

Note: Actual official high and low records may vary slightly from our data, if they occured in-between our weather recording intervals... More about our weather records

Advertising

Tucson Weather History for the Previous 24 Hours

Scroll right to see more
 ConditionsComfort  
Time TempWeatherWind HumidityBarometerVisibility
11:58 pm
Thu, Jul 18
87 °FPassing clouds.3 mph37%29.79 "Hg10 mi
10:58 pm88 °FPassing clouds.6 mph37%29.79 "Hg10 mi
9:58 pm89 °FPassing clouds.8 mph38%29.94 "Hg10 mi
8:58 pm91 °FMostly cloudy.8 mph35%29.78 "Hg10 mi
7:58 pm92 °FPassing clouds.8 mph31%29.74 "Hg10 mi
6:58 pm94 °FOvercast.12 mph29%29.73 "Hg10 mi
5:58 pm97 °FPartly sunny.16 mph26%29.87 "Hg10 mi
4:58 pm99 °FSunny.12 mph22%29.87 "Hg10 mi
4:21 pm100 °FSunny.14 mph22%29.87 "Hg10 mi
3:58 pm100 °FSunny.17 mph22%29.87 "Hg10 mi
2:58 pm100 °FPassing clouds.13 mph24%29.90 "Hg10 mi
2:25 pm100 °FSunny.14 mph24%29.92 "Hg10 mi
1:58 pm99 °FSunny.10 mph26%29.93 "Hg10 mi
12:58 pm97 °FScattered clouds.15 mph27%29.96 "Hg10 mi
12:09 pm95 °FPassing clouds.15 mph30%29.97 "Hg10 mi
11:58 am94 °FPassing clouds.9 mph31%29.98 "Hg10 mi
10:56 am92 °FSunny.9 mph34%29.85 "Hg10 mi
9:56 am90 °FSunny.9 mph36%29.88 "Hg10 mi
8:58 am86 °FSunny.No wind44%30.03 "Hg10 mi
7:58 am83 °FScattered clouds.3 mph49%30.04 "Hg10 mi
6:56 am82 °FSunny.5 mph49%29.88 "Hg10 mi
5:56 am80 °FSunny.6 mph50%29.87 "Hg10 mi
4:56 am80 °FPassing clouds.7 mph50%29.86 "Hg10 mi
3:56 am79 °FClear.5 mph55%29.86 "Hg10 mi
2:56 am80 °FClear.6 mph52%29.85 "Hg10 mi
1:56 am81 °FClear.7 mph47%29.85 "Hg10 mi
Weather by CustomWeather, © 2019

See weather overview